• In Spain
  • List of Countries
  • For 7 days
  • Water Temperature
  • Satellite Maps
  • Weather Map
  • Weather Widgets
  • user-avatar
    Login

    Hourly Weather Yunusovo

    Today, 21 August, Tuesday

    Time Temperature Precipitation Wind Pressure Humidity
    00:00 +17°C° 0.1 mm 2 mps 752 mmHg 90%
    01:00 +17°C° 0 mm 2 mps 752 mmHg 91%
    02:00 +17°C° 0 mm 2 mps 752 mmHg 92%
    03:00 +17°C° 0 mm 2 mps 751 mmHg 93%
    04:00 +17°C° 0 mm 2 mps 751 mmHg 93%
    05:00 +18°C° 0 mm 2 mps 751 mmHg 92%
    06:00 +18°C° 0 mm 2 mps 751 mmHg 91%
    07:00 +19°C° 0.1 mm 2 mps 751 mmHg 86%
    08:00 +21°C° 0.1 mm 2 mps 751 mmHg 81%
    09:00 +22°C° 0 mm 3 mps 751 mmHg 75%
    10:00 +24°C° 0.2 mm 3 mps 751 mmHg 71%
    11:00 +25°C° 0.2 mm 3 mps 751 mmHg 68%
    12:00 +26°C° 0.2 mm 4 mps 751 mmHg 64%
    13:00 +26°C° 0.1 mm 4 mps 750 mmHg 62%
    14:00 +27°C° 0.1 mm 5 mps 750 mmHg 61%
    15:00 +27°C° 0.1 mm 5 mps 750 mmHg 60%
    16:00 +26°C° 0.1 mm 5 mps 749 mmHg 64%
    17:00 +25°C° 0.1 mm 4 mps 749 mmHg 68%
    18:00 +23°C° 0.1 mm 4 mps 749 mmHg 73%
    19:00 +22°C° 0 mm 4 mps 748 mmHg 74%
    20:00 +21°C° 0 mm 4 mps 748 mmHg 75%
    21:00 +20°C° 0 mm 5 mps 748 mmHg 77%
    22:00 +20°C° 0 mm 5 mps 747 mmHg 75%
    23:00 +19°C° 0 mm 5 mps 747 mmHg 73%

    Tomorrow, 22 August, Wednesday

    Time Temperature Precipitation Wind Pressure Humidity
    00:00 +19°C° 0 mm 5 mps 747 mmHg 72%
    01:00 +19°C° 0 mm 5 mps 746 mmHg 71%
    02:00 +17°C° 0 mm 5 mps 746 mmHg 71%
    03:00 +17°C° 0 mm 5 mps 746 mmHg 70%
    04:00 +17°C° 0.8 mm 5 mps 746 mmHg 74%
    05:00 +16°C° 0.8 mm 5 mps 746 mmHg 79%
    06:00 +16°C° 0.8 mm 5 mps 746 mmHg 84%
    07:00 +17°C° 1 mm 4 mps 746 mmHg 86%
    08:00 +17°C° 1 mm 4 mps 746 mmHg 89%
    09:00 +17°C° 1 mm 4 mps 746 mmHg 91%
    10:00 +17°C° 0.4 mm 4 mps 746 mmHg 88%
    11:00 +17°C° 0.4 mm 3 mps 747 mmHg 86%
    12:00 +17°C° 0.4 mm 3 mps 747 mmHg 83%
    13:00 +18°C° 0.2 mm 3 mps 747 mmHg 76%
    14:00 +19°C° 0.2 mm 4 mps 747 mmHg 69%
    15:00 +20°C° 0.2 mm 4 mps 748 mmHg 62%
    16:00 +19°C° 0.3 mm 4 mps 748 mmHg 67%
    17:00 +18°C° 0.3 mm 3 mps 748 mmHg 71%
    18:00 +17°C° 0.3 mm 3 mps 749 mmHg 76%
    19:00 +16°C° 0.1 mm 3 mps 749 mmHg 79%
    20:00 +13°C° 0.1 mm 4 mps 750 mmHg 83%
    21:00 +12°C° 0.1 mm 4 mps 750 mmHg 87%
    22:00 +12°C° 0 mm 4 mps 751 mmHg 88%
    23:00 +11°C° 0 mm 4 mps 751 mmHg 90%

    Day after tomorrow, 23 August, Thursday

    Time Temperature Precipitation Wind Pressure Humidity
    00:00 +10°C° 0 mm 3 mps 751 mmHg 91%
    01:00 +10°C° 0 mm 3 mps 752 mmHg 92%
    02:00 +10°C° 0 mm 3 mps 752 mmHg 93%
    03:00 +9°C° 0 mm 3 mps 752 mmHg 94%
    04:00 +9°C° 0 mm 3 mps 753 mmHg 93%
    05:00 +10°C° 0 mm 4 mps 753 mmHg 92%
    06:00 +10°C° 0 mm 4 mps 754 mmHg 91%
    07:00 +11°C° 0 mm 4 mps 754 mmHg 84%
    08:00 +12°C° 0 mm 5 mps 754 mmHg 76%
    09:00 +14°C° 0 mm 6 mps 755 mmHg 69%
    10:00 +14°C° 0 mm 6 mps 755 mmHg 64%
    11:00 +15°C° 0 mm 6 mps 755 mmHg 59%
    12:00 +16°C° 0 mm 6 mps 755 mmHg 54%
    13:00 +16°C° 0 mm 6 mps 755 mmHg 54%
    14:00 +16°C° 0 mm 6 mps 755 mmHg 53%
    15:00 +17°C° 0 mm 6 mps 755 mmHg 53%
    16:00 +16°C° 0 mm 5 mps 755 mmHg 58%
    17:00 +15°C° 0 mm 4 mps 756 mmHg 62%
    18:00 +14°C° 0 mm 3 mps 756 mmHg 67%
    19:00 +13°C° 0 mm 3 mps 756 mmHg 68%
    20:00 +12°C° 0 mm 3 mps 756 mmHg 69%
    21:00 +11°C° 0 mm 3 mps 756 mmHg 71%
    22:00 +11°C° 0 mm 3 mps 756 mmHg 72%
    23:00 +11°C° 0 mm 3 mps 757 mmHg 73%

    24 August, Friday

    Time Temperature Precipitation Wind Pressure Humidity
    00:00 +11°C° 0 mm 3 mps 757 mmHg 74%
    01:00 +11°C° 0 mm 3 mps 757 mmHg 74%
    02:00 +11°C° 0 mm 3 mps 757 mmHg 75%
    03:00 +11°C° 0 mm 3 mps 757 mmHg 76%
    04:00 +11°C° 0 mm 3 mps 757 mmHg 76%
    05:00 +11°C° 0 mm 4 mps 756 mmHg 75%
    06:00 +12°C° 0 mm 4 mps 756 mmHg 75%
    07:00 +13°C° 0 mm 5 mps 756 mmHg 73%
    08:00 +15°C° 0 mm 6 mps 756 mmHg 71%
    09:00 +16°C° 0 mm 6 mps 756 mmHg 69%
    10:00 +17°C° 0 mm 6 mps 756 mmHg 66%
    11:00 +20°C° 0 mm 7 mps 756 mmHg 63%
    12:00 +21°C° 0 mm 7 mps 755 mmHg 60%
    13:00 +21°C° 0 mm 6 mps 756 mmHg 61%
    14:00 +21°C° 0 mm 5 mps 756 mmHg 63%
    15:00 +21°C° 0 mm 4 mps 756 mmHg 64%
    16:00 +20°C° 0 mm 4 mps 756 mmHg 69%
    17:00 +19°C° 0 mm 3 mps 756 mmHg 73%
    18:00 +18°C° 0 mm 2 mps 756 mmHg 77%
    19:00 +18°C° 0 mm 2 mps 756 mmHg 80%
    20:00 +17°C° 0 mm 2 mps 756 mmHg 82%
    21:00 +16°C° 0 mm 1 mps 756 mmHg 85%
    22:00 +16°C° 0 mm 1 mps 756 mmHg 87%
    23:00 +15°C° 0 mm 1 mps 757 mmHg 89%

    25 August, Saturday

    Time Temperature Precipitation Wind Pressure Humidity
    00:00 +14°C° 0 mm 1 mps 757 mmHg 91%
    01:00 +14°C° 0 mm 1 mps 757 mmHg 92%
    02:00 +14°C° 0 mm 1 mps 757 mmHg 93%
    03:00 +13°C° 0 mm 1 mps 757 mmHg 94%
    04:00 +14°C° 0 mm 1 mps 758 mmHg 93%
    05:00 +14°C° 0 mm 1 mps 758 mmHg 93%
    06:00 +14°C° 0 mm 1 mps 758 mmHg 92%
    07:00 +16°C° 0 mm 1 mps 758 mmHg 87%
    08:00 +18°C° 0 mm 1 mps 758 mmHg 82%
    09:00 +19°C° 0 mm 2 mps 759 mmHg 76%
    10:00 +21°C° 0 mm 1 mps 759 mmHg 72%
    11:00 +22°C° 0 mm 1 mps 759 mmHg 69%
    12:00 +23°C° 0 mm 1 mps 759 mmHg 65%
    13:00 +23°C° 0 mm 1 mps 759 mmHg 64%
    14:00 +23°C° 0 mm 1 mps 759 mmHg 64%
    15:00 +23°C° 0 mm 1 mps 759 mmHg 63%
    16:00 +22°C° 0 mm 1 mps 759 mmHg 67%
    17:00 +21°C° 0 mm 1 mps 759 mmHg 71%
    18:00 +21°C° 0 mm 1 mps 759 mmHg 75%
    19:00 +19°C° 0 mm 1 mps 759 mmHg 79%
    20:00 +18°C° 0 mm 1 mps 759 mmHg 83%
    21:00 +16°C° 0 mm 1 mps 760 mmHg 87%
    22:00 +15°C° 0 mm 1 mps 760 mmHg 88%
    23:00 +15°C° 0 mm 1 mps 760 mmHg 89%

    26 August, Sunday

    Time Temperature Precipitation Wind Pressure Humidity
    00:00 +15°C° 0 mm 1 mps 760 mmHg 90%
    01:00 +14°C° 0 mm 1 mps 760 mmHg 91%
    02:00 +14°C° 0 mm 1 mps 760 mmHg 91%
    03:00 +14°C° 0 mm 1 mps 761 mmHg 91%
    04:00 +14°C° 0 mm 1 mps 761 mmHg 91%
    05:00 +14°C° 0 mm 0 mps 761 mmHg 90%
    06:00 +14°C° 0 mm 0 mps 761 mmHg 90%
    07:00 +18°C° 0 mm 1 mps 761 mmHg 84%
    08:00 +20°C° 0 mm 1 mps 761 mmHg 78%
    09:00 +21°C° 0 mm 1 mps 761 mmHg 72%
    10:00 +22°C° 0 mm 1 mps 761 mmHg 69%
    11:00 +23°C° 0 mm 1 mps 761 mmHg 66%
    12:00 +24°C° 0 mm 1 mps 761 mmHg 63%
    13:00 +24°C° 0 mm 1 mps 761 mmHg 62%
    14:00 +24°C° 0 mm 1 mps 760 mmHg 61%
    15:00 +25°C° 0 mm 1 mps 760 mmHg 59%
    16:00 +24°C° 0 mm 1 mps 760 mmHg 64%
    17:00 +23°C° 0 mm 1 mps 760 mmHg 69%
    18:00 +22°C° 0 mm 1 mps 760 mmHg 73%
    19:00 +21°C° 0 mm 1 mps 760 mmHg 77%
    20:00 +19°C° 0 mm 1 mps 760 mmHg 81%
    21:00 +18°C° 0 mm 1 mps 760 mmHg 84%
    22:00 +18°C° 0 mm 1 mps 760 mmHg 85%
    23:00 +16°C° 0 mm 1 mps 760 mmHg 86%
    Show more